Regional Weather Roundup
Issued by NWS

Home | Current Version | Previous Version | Graphics & Text | Print | Product List | Glossary On
Versions: 1 2 3 4 5 6 7 8 9 10 11 12 13 14 15 16 17 18 19 20 21 22 23 24 25 26 27 28 29 30 31 32 33 34 35 36 37 38 39 40 41 42 43 44 45 46 47 48 49 50
000
ASUS43 KMKX 312321
RWRWI

WISCONSIN REGIONAL WEATHER ROUNDUP
NATIONAL WEATHER SERVICE MILWAUKEE/SULLIVAN WI
600 PM CDT FRI JUL 31 2015

NOTE: "FAIR" INDICATES FEW OR NO CLOUDS BELOW 12,000 FEET WITH NO
SIGNIFICANT WEATHER AND/OR OBSTRUCTIONS TO VISIBILITY.

WIZ001-002-006>008-014>016-023>028-010000-
NORTHWEST WISCONSIN

CITY           SKY/WX    TMP DP  RH WIND       PRES   REMARKS
SUPERIOR ARPT  MOSUNNY   78  51  39 NW20G28   29.91F
ASHLAND        PTSUNNY   69  60  73 VRB3      29.92F
HAYWARD        MOSUNNY   78  48  34 VRB7      29.95S
SIREN          MOSUNNY   77  47  34 NW12      29.97S
CUMBERLAND     SUNNY     73  45  35 NW14G23   29.98S
RICE LAKE      MOSUNNY   76  47  35 W13G20    29.98F
CHETEK         PTSUNNY   77  51  39 MISG      29.97S
LADYSMITH      MOSUNNY   76  50  39 W17G25    29.97S
EAU CLAIRE     MOSUNNY   79  50  36 NW12G22   29.96F
MENOMONIE      SUNNY     80  47  31 W13       29.98S
NEW RICHMOND   SUNNY     77  46  33 NW14      29.99F
OSCEOLA        SUNNY     79  46  31 NW12G20   30.01S
$$

WIZ003>005-009-010-017-018-010000-
NORTH CENTRAL WISCONSIN

CITY           SKY/WX    TMP DP  RH WIND       PRES   REMARKS
MANITOWISH WTR PTSUNNY   63  58  81 W3        29.95F
ARBOR VITAE    LGT RAIN  62  57  85 CALM      29.96S
WOODRUFF       LGT RAIN  62  57  85 CALM      29.96S
RHINELANDER    LGT RAIN  67  51  56 NW17G25   29.98R
EAGLE RIVER    PTSUNNY   65  49  56 NW10G23   29.95R
LAND O LAKES   MOSUNNY   68  47  47 NW10G18   29.95R
PHILLIPS       CLOUDY    67  58  74 N3        29.96S
TOMAHAWK       PTSUNNY   63  58  84 CALM      29.97F
MEDFORD        PTSUNNY   74  53  48 W13G22    29.96S
MERRILL        NOT AVBL
$$

WIZ029-030-035-036-043>047-010000-
CENTRAL WISCONSIN

CITY           SKY/WX    TMP DP  RH WIND       PRES   REMARKS
WAUSAU         MOSUNNY   79  50  36 NW17G23   29.92S
MOSINEE        MOSUNNY   75  50  41 W12G24    29.95S
MARSHFIELD     MOSUNNY   77  48  35 NW17G29   29.96S
STEVENS POINT  MOSUNNY   75  52  43 W14G22    29.94F
WAUPACA        SUNNY     82  49  31 W16       29.92S HX  80
WAUTOMA        MOSUNNY   81  48  31 NW17G23   29.94S HX  80
WISC RAPIDS    MOSUNNY   78  49  35 NW16      29.96F
CAMP DOUGLAS   SUNNY     78  52  40 W18       29.96F
$$

WIZ011>013-019>022-031-037>040-048>050-010000-
NORTHEAST WISCONSIN

CITY           SKY/WX    TMP DP  RH WIND       PRES   REMARKS
ANTIGO         LGT RAIN  62  57  81 W14G20    29.95R
SHAWANO        PTSUNNY   80  48  32 W12G17    29.89S
OCONTO         MOSUNNY   81  50  34 W10G20    29.85F HX  80
STURGEON BAY   MOSUNNY   75  54  46 N8        29.88F
GREEN BAY      MOSUNNY   80  53  39 NW14      29.88S HX  80
MANITOWOC      SUNNY     80  50  34 MISG      29.88S HX  80
APPLETON       PTSUNNY   75  46  35 W15G21    29.91S
CLINTONVILLE   MOSUNNY   79  45  29 W17G23    29.90S
OSHKOSH        MOSUNNY   80  52  37 W18G26    29.91S HX  80
$$

WIZ032>034-041-042-053>061-010000-
SOUTHWEST WISCONSIN

CITY           SKY/WX    TMP DP  RH WIND       PRES   REMARKS
LA CROSSE      SUNNY     82  51  34 NW15      29.97F HX  81
SPARTA         MOSUNNY   80  45  28 NW13G18   29.98F
VIROQUA        SUNNY     77  50  38 NW13      30.00F
BOSCOBEL       SUNNY     83  52  34 NW12      29.98F HX  82
PRAIRIE DU CHI SUNNY     82  45  26 W9G17     29.99S HX  80
PLATTEVILLE    SUNNY     80  50  35 NW13G18   29.99F HX  80
$$

WIZ056-057-062-063-064-067-068-010000-
SOUTH CENTRAL WISCONSIN

CITY           SKY/WX    TMP DP  RH WIND       PRES   REMARKS
REEDSBURG      MOSUNNY   80  50  34 NW12G17   29.97S HX  80
BARABOO/DELLS  MOSUNNY   80  44  27 NW17      29.97S
LONE ROCK      SUNNY     81  50  33 NW13G20   29.97F HX  80
MINERAL POINT  SUNNY     81  46  30 W13G18    29.99F HX  80
MADISON        MOSUNNY   80  51  36 NW10G20   29.95F HX  80
MIDDLETON      SUNNY     81  43  26 NW16G25   29.97S
WATERTOWN      MOSUNNY   79  52  38 W10G20    29.94S
MONROE         SUNNY     81  46  30 NW12G22   29.97F HX  80
JANESVILLE     SUNNY     82  45  26 NW17G23   29.95F HX  80
$$

WIZ051-052-058>065-066-070>072-010000-
SOUTHEAST WISCONSIN

CITY           SKY/WX    TMP DP  RH WIND       PRES   REMARKS
MILWAUKEE      MOSUNNY   83  46  27 W20G25    29.92F HX  81
WAUKESHA       MOSUNNY   77  48  36 NW15      29.95S
MILWAUKEE/TIMM MOSUNNY   81  43  26 NW15      29.92F
RACINE         SUNNY     82  49  31 NW12G22   29.94S HX  81
BURLINGTON     MOSUNNY   80  47  31 NW10      29.94F
KENOSHA        SUNNY     81  49  32 NW15G23   29.93F HX  80
FOND DU LAC    SUNNY     80  52  37 NW14G24   29.92S HX  80
SHEBOYGAN      MOSUNNY   80  53  39 NW13G24   29.90S HX  80
WEST BEND      MOSUNNY   79  45  29 W18G26    29.92S
JUNEAU         SUNNY     77  50  38 NW8G16    29.95S
$$

LSZ147-162-010000-
LAKE SUPERIOR

STATION/POSITION TIME  TEMP    WIND        PRES    WAVE
                       AIR SEA DIR/SP/G            HT/PER
                 (UTC) (F)     (DEG/KT/KT) (MB)    (FT/S)
W MID LAKE BUOY  2250   59 54  240/ 12/ 14 1011.2F   1/ 4
DEVILS ISLAND    2300   67     220/ 13/ 16 1012.0F
PORT WING        2200   71      60/  3/  4 1012.9S
SAXON HARBOR     2240   66                 1012.5F
$$

LMZ867-665-643>646-010000-
LAKE MICHIGAN

STATION/POSITION TIME  TEMP    WIND        PRES    WAVE
                       AIR SEA DIR/SP/G            HT/PER
                 (UTC) (F)     (DEG/KT/KT) (MB)    (FT/S)
CHAMBERS ISLAND  2200   73     300/  7/ 16 1010.8S
S GREEN BAY BUOY 2300   74 72  310/ 10/ 12 1012.6R
N MID LAKE BUOY  2250   70 69   60/  2/  6 1010.2R   2/ 3
NORTHPORT PIER   2200   74     300/  7/ 13 1010.5S
SISTER BAY       2244   75     320/ 15/ 18   N/A
ALGOMA LAKESHORE 2212          320/  8/ 20   N/A
KEWAUNEE LAKESHO 2200   80     290/  8/ 16 1010.8F
SHEBOYGAN LAKESH 2300   79     280/ 14/ 19 1012.2F
PORT WASHINGTON  2200   83     290/  8/ 16 1013.2S
ATWATER BUOY     2300   75 67  310/ 16/ 21 1014.1F
MILWAUKEE LAKESH 2300   81     290/ 14/ 23   N/A
KENOSHA   LAKESH 2300   81     320/ 14/ 22 1012.5F
$$

TC  - TEMPERATURE IN CELSIUS
VSB - VISIBILITY IN STATUTE MILES
WCI - WIND CHILL INDEX
HX  - HEAT INDEX



USA.gov is the U.S. government's official web portal to all federal, state and local government web resources and services.